map of MDC home
Great Circle Mapper logo
MDC - Airport
Location
City:  Manado, Sulawesi Island, Indonesia
Name:Sam Ratulangi
ICAO / IATA:WAMM / MDC

Details
Type:Airport (Aerodrome, Airfield)
Use:Public/Civil, International (customs port of entry)
Latitude:132'58"N (1.549447)
Longitude:12455'33"E (124.925878)
Datum:WGS 1984
Elevation:264 ft (80 m)
Runways:1
Longest:8691 × 148 ft (2649 × 45 m), paved

Time
Time Zone:UTC+8
Local Time:

Weather
METAR:WAMM 240900Z 04003KT 9999 FEW021 26/24 Q1009 N0SIG
TAF:WAMM 240500Z 2406/2512 34008KT 9999 SCT022
TEMPO 2406/2410 5000 TSRA FEW019CB SCT020
BECMG 2410/2412 12003KT FEW022
BECMG 2501/2503 35008KT SCT022
TEMPO 2505/2509 5000 TSRA FEW019CB SCT020

Related Locations
Nearby:
Farthest:ALT: 12426 mi / 19998 km
Alenquer, PA, BR

Find:

   beyond  
but within

Other Information
Maps:
NOTAMs:
Links:
Sources:

  
flag of Indonesia   

Sectional Chart

Flight Planning
at skyvector.com

Satellite Image

Google Maps Satellite View

 

Copyright © 2004-2014 Karl L. Swartz. All rights reserved.
The Great Circle Mapper name and logo are trademarks of the Great Circle Mapper.
All other trademarks mentioned herein belong to their respective owners.
Please see credits for attibutions and further copyright information.

  Follow gcmap on Facebook Follow gcmap on Twitter

hCard Microformat

Geo Microformat